RH
102 95 86 76 67 62 60 58 57 56 56 58 58 59 58 59 59 54 49 43 41 44 47 47 46 45 44 43 42 41 40 40 41 40 40 40 40 41 41 42 42 44 45 46 48 49 49 49 49 48 47 45 43 43 42 41 39 37 37 37 37 36 33 29 24 20 17 16 16 17 18 21 23 23 23 24 24 25 25 24 24 25 25 24 24 23 23 23
100 96 86 73 63 58 55 52 51 50 49 50 50 49 50 52 56 56 53 49 45 45 48 49 48 48 47 46 46 45 44 44 44 44 44 44 44 44 45 45 45 46 46 46 46 46 46 46 46 45 43 43 43 43 41 40 40 39 40 39 36 32 26 21 19 17 17 17 19 21 23 24 25 25 24 24 24 24 25 25 25 25 24 24 23 22 22 22
94 92 85 74 66 61 57 53 49 46 43 42 42 42 43 45 48 50 50 48 47 47 49 50 50 51 51 52 52 51 49 48 46 46 46 46 47 47 46 46 45 45 44 44 44 44 46 46 45 43 44 45 45 43 41 42 44 44 41 36 30 24 20 18 18 19 20 21 23 25 26 26 26 25 24 24 24 24 24 24 24 24 23 22 22 21 21 21
95 92 87 79 70 64 59 53 49 44 40 37 37 38 38 40 42 43 44 44 43 42 44 46 48 50 50 51 50 49 48 46 45 45 45 45 45 45 46 46 44 44 44 44 45 47 47 45 44 44 46 46 44 43 45 47 47 43 36 28 22 19 19 20 22 23 24 25 25 26 26 27 27 26 25 25 24 24 23 23 23 22 22 21 21 20 20 21
93 87 83 77 71 65 58 53 49 42 36 35 34 34 35 36 38 39 40 41 40 39 41 43 44 46 47 46 45 45 45 44 45 46 47 48 49 49 48 46 46 45 46 48 49 49 47 46 47 48 47 45 45 49 51 50 43 34 26 21 19 19 21 24 26 27 27 27 27 27 27 27 27 26 25 25 24 24 24 23 22 22 21 21 20 20 20 20
83 79 76 73 69 63 56 51 47 40 35 33 31 30 31 32 34 36 37 39 40 38 39 42 45 46 47 47 47 47 46 46 51 54 57 59 60 58 55 53 52 52 54 57 55 51 48 49 51 51 49 50 54 55 51 42 32 25 21 20 21 23 25 27 28 28 28 28 27 27 28 27 26 26 25 24 25 24 24 23 22 22 21 21 21 20 20 20
77 74 71 68 62 57 50 45 41 37 32 29 27 25 25 27 30 33 33 35 37 38 39 43 47 50 51 50 51 52 53 56 62 65 65 66 65 65 67 64 63 65 66 66 61 56 55 57 56 54 57 60 59 51 39 29 23 21 21 22 24 27 27 28 28 28 28 27 27 27 27 26 25 25 25 25 25 24 24 23 22 22 21 21 21 20 20 20
71 68 64 60 55 50 44 39 35 31 27 24 22 21 21 22 24 28 31 33 35 38 40 44 47 49 52 55 58 64 69 70 72 72 71 74 75 78 80 75 75 77 74 70 65 63 64 63 60 61 65 61 50 36 26 22 21 22 23 25 26 28 28 28 29 29 28 28 27 27 25 25 26 26 26 26 25 24 23 23 22 22 21 21 21 21 21 21
66 62 58 54 49 44 38 32 28 25 22 20 19 18 19 24 27 28 30 32 38 44 48 52 55 58 61 66 74 82 86 82 81 83 84 87 89 88 88 85 84 83 77 73 70 68 68 65 65 68 64 50 35 25 21 22 23 25 27 28 28 28 28 28 29 28 28 28 27 26 25 26 28 27 26 25 24 24 23 23 22 21 21 21 21 21 21 22
62 58 53 48 43 39 33 28 25 21 18 17 17 19 25 33 40 46 49 51 57 66 74 77 81 85 84 84 87 90 91 90 90 93 94 95 95 94 94 94 93 88 82 78 75 73 71 71 72 66 50 34 25 21 21 23 25 28 29 30 29 29 29 28 28 28 28 27 26 25 27 29 29 27 25 24 24 24 24 23 22 22 22 22 22 22 22 23
56 52 47 41 38 35 29 24 21 18 17 18 18 28 50 59 59 70 82 86 88 92 96 96 97 98 96 96 97 96 96 95 95 96 99 99 98 99 99 99 96 90 86 82 78 76 76 76 68 51 34 24 22 22 24 25 27 29 30 30 30 30 30 28 28 28 28 27 26 27 28 29 27 25 24 24 25 25 24 23 23 22 22 22 22 22 23 24
50 46 40 35 32 29 24 22 19 18 19 23 31 44 73 90 86 91 99 100 100 99 100 100 100 100 100 100 100 101 100 99 99 100 102 102 99 98 98 96 92 88 85 82 79 80 80 70 52 34 25 22 23 24 26 28 29 30 30 30 31 30 29 28 28 29 28 28 28 28 28 27 25 25 26 26 26 25 24 24 23 23 22 22 21 22 24 26
43 38 33 29 26 23 21 19 18 22 23 37 67 79 87 100 100 99 101 100 100 100 100 100 100 100 100 100 100 100 100 102 102 99 99 100 97 94 91 88 86 85 84 83 84 83 72 52 34 25 23 23 24 26 28 29 30 30 30 30 30 29 28 28 28 29 28 29 29 28 27 25 26 27 28 28 26 25 24 23 23 22 21 21 22 24 26 28
37 31 27 24 22 19 20 21 23 34 41 55 88 103 98 101 102 100 100 100 100 100 100 100 100 100 100 100 100 100 100 101 100 95 94 94 90 85 82 82 84 87 88 89 86 73 52 34 25 23 23 25 26 28 30 31 31 30 30 29 28 28 28 29 27 26 28 29 29 28 27 27 28 29 28 27 25 25 24 22 22 21 20 21 24 27 29 30
31 25 22 21 20 20 24 32 35 48 65 72 84 96 101 102 101 101 100 100 100 100 100 100 100 100 100 100 99 100 100 98 95 92 92 89 85 82 82 87 91 94 94 88 72 50 33 25 24 25 26 27 28 30 31 31 31 29 28 28 28 29 29 27 26 26 28 31 31 29 29 29 29 28 27 26 25 24 22 21 20 20 20 22 26 28 29 30
25 20 21 21 20 26 36 49 56 67 82 82 79 85 94 100 101 100 100 100 100 99 100 99 100 101 101 102 101 99 97 93 87 84 86 88 89 90 92 96 98 97 89 69 47 32 26 26 26 27 28 30 31 32 32 31 30 30 29 29 29 29 27 27 29 30 30 32 32 31 31 30 29 28 26 26 25 23 22 20 20 20 21 23 25 27 28 30
23 20 23 24 28 40 52 68 79 89 97 92 87 89 92 99 103 102 100 100 100 99 100 101 102 102 102 104 102 96 91 87 85 87 91 94 96 97 99 101 99 88 68 45 31 27 27 27 28 30 31 32 33 33 33 32 32 32 31 30 29 28 30 31 32 32 31 31 33 32 31 30 28 27 27 26 25 23 22 21 21 21 22 23 24 26 27 28
24 23 29 33 43 54 65 85 92 91 100 100 98 98 97 99 101 101 100 99 100 100 100 101 101 101 102 102 97 94 92 88 92 99 101 101 100 100 101 99 86 64 42 31 28 27 28 29 30 32 32 33 33 33 33 34 33 33 32 31 30 31 33 33 32 32 31 31 33 33 31 30 29 29 29 27 26 24 23 23 24 24 23 23 24 25 26 26
25 25 36 45 55 60 69 94 97 88 97 100 99 101 99 100 100 99 100 100 100 100 100 100 100 101 100 96 92 93 95 96 102 105 104 102 101 101 99 84 60 39 31 29 29 28 29 31 32 32 32 32 32 33 34 34 34 34 34 34 34 33 33 33 32 32 32 32 32 32 32 31 31 32 30 29 28 27 26 26 26 26 25 24 23 24 25 26
27 26 40 55 64 63 68 94 102 93 98 100 99 102 100 101 101 100 101 99 100 100 100 100 100 99 96 93 92 94 99 103 105 104 102 101 99 94 80 57 38 31 31 30 30 31 32 33 33 33 33 33 34 36 37 38 38 37 37 36 37 36 34 34 33 32 32 32 33 33 34 34 34 34 33 31 30 29 29 28 28 28 26 24 23 24 24 26
29 26 39 59 72 70 67 89 104 98 98 100 99 100 100 101 101 100 100 100 101 100 100 100 99 96 93 93 96 98 101 102 102 102 102 98 90 74 52 37 32 32 33 32 32 33 33 34 34 34 35 36 37 39 40 40 40 39 39 39 39 38 36 34 33 31 30 31 33 34 35 35 36 35 34 33 32 32 31 30 29 28 26 24 23 24 25 26
28 24 33 54 75 81 74 82 100 101 100 101 99 99 100 100 100 99 100 99 98 98 100 99 95 93 94 97 101 102 101 101 103 102 96 86 71 50 35 34 34 34 35 34 35 35 35 35 35 35 36 37 39 40 41 41 40 41 41 40 38 38 36 34 31 29 29 31 33 34 36 36 36 36 35 34 34 32 31 30 29 28 26 24 23 24 25 26
25 20 26 45 69 85 86 86 96 100 99 100 99 99 100 99 100 100 99 95 94 98 99 96 95 96 99 102 102 101 102 106 105 96 83 67 48 35 33 37 36 36 36 36 36 37 37 36 36 36 37 39 42 43 42 40 40 40 39 39 38 37 35 33 31 30 30 30 32 35 38 39 38 37 37 36 34 33 32 30 29 27 25 23 24 25 25 26
23 19 19 37 64 84 91 92 97 100 98 96 97 99 101 101 99 98 98 97 97 99 97 97 100 101 101 101 100 101 104 104 98 85 68 48 35 34 37 38 37 38 37 37 38 37 37 37 37 39 40 42 42 41 39 38 37 37 38 40 39 37 34 32 32 32 32 31 33 36 39 43 41 39 38 37 35 34 32 30 28 26 24 23 25 25 25 26
20 18 14 28 60 85 89 85 89 98 99 98 99 100 100 98 95 95 97 100 101 99 99 101 102 101 100 100 101 103 102 97 88 72 51 36 33 37 39 39 39 39 39 39 39 39 40 40 40 42 42 41 40 39 39 37 36 39 42 42 40 38 36 33 32 32 32 33 35 35 37 42 41 39 39 39 37 34 31 29 26 24 23 24 25 26 25 25
18 15 14 23 50 79 91 89 87 88 87 91 98 99 98 97 98 99 101 104 103 100 101 103 102 101 100 101 103 102 99 93 77 56 39 33 36 39 40 41 40 41 42 41 41 41 42 42 42 41 41 41 41 40 39 38 40 43 44 42 40 39 35 33 32 31 33 34 35 34 34 40 43 43 43 41 37 33 29 27 25 23 23 25 26 26 25 25
19 13 14 22 40 63 82 91 95 95 93 95 98 98 98 100 101 102 102 103 102 102 104 105 104 102 101 103 105 103 98 86 62 43 35 35 38 39 41 42 41 42 42 41 41 42 42 42 41 41 41 42 41 40 40 41 44 44 42 42 41 39 35 34 34 34 35 35 35 34 36 43 47 46 43 39 35 31 28 25 23 23 24 26 26 25 25 25
18 15 14 21 34 49 64 73 81 91 97 102 105 103 100 100 100 100 101 101 101 104 106 104 103 101 102 104 104 104 95 71 47 37 36 37 40 41 41 42 42 42 43 42 42 43 42 41 41 41 42 42 41 40 41 42 43 43 43 43 42 39 37 36 37 37 37 35 37 38 40 46 49 45 40 36 32 29 26 23 22 24 26 27 27 25 25 25
16 16 17 22 28 38 56 69 75 77 78 86 97 101 99 100 101 100 100 102 103 105 104 102 100 100 103 105 107 105 84 53 38 38 38 40 41 41 42 43 42 43 44 44 44 44 43 42 42 43 43 43 42 42 42 43 43 45 46 45 42 41 40 40 40 39 38 39 43 45 45 46 46 41 36 32 29 26 24 23 24 26 28 27 27 26 25 24
14 15 16 23 31 36 53 74 85 87 87 89 94 99 101 100 100 100 102 103 102 103 103 100 99 101 104 108 109 96 65 41 37 39 40 42 42 42 43 43 43 44 44 45 45 45 44 45 45 44 43 43 43 43 44 44 45 46 48 47 46 45 44 42 41 42 45 47 49 48 45 42 39 35 31 29 27 24 23 24 26 28 28 28 27 26 25 24
12 13 13 22 33 39 53 74 90 101 104 100 99 102 103 101 102 103 102 101 101 102 102 100 100 103 107 112 103 76 49 38 39 41 42 43 43 43 43 43 44 44 45 45 45 44 45 45 45 44 44 45 45 45 46 46 46 46 47 48 47 45 43 43 45 49 52 50 46 42 39 38 36 32 28 27 25 24 25 26 28 29 29 28 27 26 24 24
9 10 12 20 31 40 55 70 83 98 105 104 105 104 104 106 104 101 99 99 101 102 100 100 102 104 110 110 88 57 41 40 41 43 44 44 44 44 43 43 44 45 45 45 45 45 45 45 45 46 46 46 47 47 48 49 48 48 48 48 47 47 46 47 49 49 50 47 42 38 35 34 36 32 28 27 26 26 27 28 29 29 28 28 27 26 24 24
7 8 10 18 31 46 61 68 74 87 98 105 108 105 107 107 101 98 99 100 101 101 99 101 103 105 109 100 70 44 39 41 42 45 45 44 44 43 42 43 43 44 45 45 46 46 47 47 47 47 47 48 49 51 52 52 51 51 50 50 50 49 47 46 44 42 44 45 43 39 34 32 33 32 28 28 28 28 29 30 30 29 28 28 27 25 24 24
6 7 9 15 30 51 67 73 76 84 94 106 112 113 112 106 99 99 99 100 101 100 100 102 104 108 105 82 53 40 41 42 43 46 45 44 43 42 42 42 42 43 43 45 47 48 48 49 49 49 49 50 52 53 53 54 54 53 52 51 50 48 45 43 41 38 39 41 42 40 35 31 31 31 29 29 29 30 30 31 30 28 28 28 26 25 24 24
6 7 8 13 27 50 69 77 81 87 95 106 112 112 108 102 100 100 99 101 100 100 103 103 105 109 92 60 42 41 42 43 45 45 44 44 43 42 42 41 41 43 44 47 48 49 50 50 49 49 50 51 53 54 55 56 55 53 51 49 47 46 44 42 40 37 36 36 39 39 36 30 29 31 31 30 31 32 31 31 29 28 28 27 26 25 23 26
7 7 8 12 21 41 65 79 86 90 95 103 107 105 102 100 100 99 100 100 99 103 105 102 107 103 71 43 40 43 42 44 45 44 44 44 44 43 42 41 43 45 46 48 49 48 49 49 49 49 50 52 54 55 55 54 52 49 47 46 44 43 41 39 38 36 33 33 35 37 36 30 28 31 31 31 32 32 31 30 28 28 27 26 26 25 25 31
7 7 8 11 16 29 53 76 88 93 96 102 104 102 100 100 100 100 100 100 104 106 102 104 107 85 50 38 43 43 43 45 44 44 46 46 45 45 43 43 44 46 47 48 48 48 48 49 50 50 51 52 53 52 52 50 48 47 46 45 43 41 40 38 36 33 31 30 30 34 37 32 28 30 32 31 32 32 30 29 27 27 25 26 27 25 28 37
8 8 8 10 13 20 40 64 82 90 96 100 101 101 101 101 101 101 100 103 105 102 103 109 94 59 39 41 44 43 46 47 45 46 47 47 47 45 44 44 45 46 47 46 47 48 48 50 51 50 49 48 48 48 49 49 49 48 46 45 43 40 38 36 34 32 29 27 27 32 39 37 30 30 33 32 31 31 29 28 26 25 25 27 27 28 36 46
9 8 9 11 12 16 28 49 71 84 91 95 98 102 104 102 102 104 105 106 103 102 108 99 66 40 39 43 43 46 48 47 48 48 48 48 47 46 44 44 45 46 47 47 47 48 48 49 49 47 47 46 47 49 50 50 50 47 45 44 43 41 38 37 36 33 30 29 29 30 39 41 32 31 33 32 31 30 27 27 26 24 26 28 28 34 47 55
11 10 10 13 14 16 22 37 59 76 85 91 95 100 103 103 104 105 105 107 108 108 98 70 42 37 41 42 45 48 47 48 49 48 49 49 47 46 45 45 46 47 48 47 47 48 48 49 49 48 48 48 49 50 50 50 48 46 45 44 42 41 38 36 36 35 34 35 34 31 37 41 34 31 33 32 31 30 27 26 26 25 28 28 31 45 57 59
12 12 16 20 20 21 26 33 46 61 74 82 86 92 96 96 99 103 106 109 108 93 66 43 37 39 41 43 47 48 49 50 49 49 50 49 47 47 47 47 48 48 48 49 49 49 50 50 50 50 51 51 50 49 47 48 48 46 44 42 41 40 38 37 38 39 40 40 38 34 35 39 35 32 33 32 32 32 29 28 28 29 29 29 38 56 63 58
15 16 22 27 28 32 37 42 47 54 64 71 76 84 90 96 104 110 108 98 81 60 41 35 38 39 41 46 48 48 51 52 50 50 51 50 49 49 48 49 50 50 50 50 50 51 51 51 51 51 52 52 50 47 45 46 46 43 42 40 40 41 42 42 41 41 42 41 39 34 33 38 36 32 34 37 41 42 36 31 32 31 29 33 48 62 62 55
19 22 28 34 38 43 49 55 60 65 70 76 84 92 100 107 107 97 80 62 47 39 36 36 37 39 44 47 48 50 51 52 54 52 51 52 51 50 51 52 51 52 53 52 52 52 51 50 50 50 52 52 51 48 46 46 45 44 43 42 42 44 46 46 44 42 41 40 39 35 33 36 34 36 47 53 54 52 43 34 32 30 32 44 57 62 56 51
29 33 39 44 49 56 61 66 70 73 77 83 90 94 95 91 79 61 47 39 36 35 35 36 37 41 45 47 50 52 51 52 55 54 53 53 52 52 53 54 54 55 54 54 53 51 50 49 48 47 48 49 50 49 47 48 48 47 46 45 44 45 48 49 47 43 40 38 39 35 31 37 46 56 68 67 61 59 49 34 30 33 44 57 62 57 51 51
41 45 49 52 56 60 62 64 66 70 72 74 74 71 65 56 46 38 35 35 34 34 34 36 39 42 46 48 50 51 51 52 54 55 55 54 54 55 55 56 56 55 54 54 52 50 49 49 46 44 44 45 46 46 45 46 46 46 47 46 46 47 50 51 48 43 38 35 35 34 37 54 72 79 80 73 63 58 45 31 34 49 63 66 59 52 51 56
43 45 47 51 53 55 55 56 58 58 57 55 51 47 41 36 34 33 33 33 33 33 34 36 40 43 46 48 49 50 51 52 53 54 55 56 57 57 57 57 56 55 55 53 50 48 48 47 46 45 45 45 45 45 43 44 46 47 49 48 47 48 50 49 45 40 35 32 37 48 62 75 81 77 74 68 58 49 37 36 53 70 71 62 54 54 57 58
41 44 46 48 50 50 50 50 49 47 42 38 35 33 31 32 32 33 33 33 33 33 35 37 40 43 45 46 48 50 50 51 52 54 54 55 56 56 56 56 54 54 52 50 48 46 45 47 47 46 47 47 46 46 45 46 48 51 52 51 48 47 46 44 40 37 37 42 56 74 86 85 72 60 59 55 45 42 47 58 71 73 64 57 58 61 59 53
42 44 45 45 46 46 43 41 38 35 31 29 28 29 31 32 34 33 33 32 33 34 36 38 40 42 44 46 46 48 49 50 51 51 52 53 53 52 53 52 52 51 49 47 46 44 44 46 47 47 49 50 48 47 48 49 50 53 54 48 44 42 42 42 42 46 55 68 82 91 91 83 67 52 47 43 42 55 72 77 71 63 59 62 66 63 55 48
41 42 42 41 40 38 34 30 28 26 26 26 28 30 32 33 34 34 33 33 33 35 36 39 41 42 44 44 45 46 48 48 49 49 49 49 49 49 50 49 49 48 46 46 45 45 45 46 47 48 49 53 52 49 49 50 50 52 50 45 44 46 50 53 60 70 80 88 94 90 80 74 63 46 38 43 61 83 89 76 63 61 66 69 67 60 52 46
40 39 38 35 33 30 26 24 23 23 25 27 29 32 33 34 35 34 33 34 34 35 36 38 40 41 42 43 44 45 45 46 47 48 48 49 48 48 47 47 47 46 46 46 46 46 46 46 48 47 48 55 56 49 48 48 47 50 53 54 58 63 68 75 84 93 94 89 87 78 63 56 48 39 44 64 83 91 82 67 62 68 74 70 64 59 54 49
34 32 30 28 26 24 22 21 22 24 26 29 31 33 34 35 35 34 34 34 35 36 37 38 39 40 41 42 42 44 44 44 45 45 46 46 46 46 46 47 47 47 47 47 47 48 48 48 48 44 43 49 49 45 47 49 57 68 72 72 76 81 87 93 101 106 96 79 72 64 49 40 40 48 67 82 83 75 71 70 70 74 76 70 63 61 58 56
26 25 23 23 22 20 21 21 22 25 28 31 33 35 36 36 36 36 36 36 36 37 37 38 39 40 40 40 41 42 42 42 43 43 44 45 45 46 46 47 48 48 49 49 49 49 47 45 43 41 41 45 47 50 57 67 83 90 84 81 87 97 101 102 106 108 92 71 61 51 39 43 58 73 81 79 71 69 78 83 76 72 73 69 64 63 61 61
Wind_Speed
32 33 35 36 37 39 42 45 48 50 52 53 54 53 52 51 51 51 50 50 49 48 48 49 49 49 49 49 49 50 50 51 51 52 52 52 52 53 53 53 53 53 53 53 53 54 54 55 55 56 57 57 58 58 59 59 60 60 60 60 58 57 55 53 51 49 47 46 46 45 44 44 44 44 43 43 44 45 46 47 48 49 50 51 52 53 53 54
32 33 34 34 35 36 38 40 42 46 48 50 51 52 52 52 52 52 51 51 49 49 49 48 48 48 48 48 48 49 49 50 50 51 51 51 52 52 52 52 52 52 52 52 53 53 54 54 55 55 56 56 57 57 57 57 58 58 57 55 53 51 49 48 47 45 45 44 43 43 43 43 44 44 44 43 44 45 46 47 48 50 51 53 54 55 55 56
32 32 32 32 32 33 34 35 37 40 42 44 46 47 48 49 50 51 51 50 50 49 49 49 48 48 48 48 49 49 49 49 50 50 51 51 51 52 52 52 52 52 52 52 52 52 53 53 54 54 54 55 55 55 55 55 55 54 53 50 48 46 44 44 43 43 42 41 41 41 42 43 44 45 45 45 45 46 46 48 49 51 53 54 56 57 58 58
31 31 31 31 32 32 32 33 34 35 36 37 39 41 43 44 46 48 48 49 49 49 48 48 48 48 48 49 49 49 49 49 50 49 50 50 51 51 51 51 51 51 50 50 50 51 51 52 53 53 53 53 54 54 53 53 51 50 48 45 43 41 41 41 41 40 40 40 40 41 42 43 45 45 45 46 47 48 48 49 51 53 54 56 57 59 60 60
30 30 30 31 32 32 32 32 32 32 32 31 33 34 37 39 40 42 44 45 46 47 46 47 47 48 48 48 48 48 48 48 47 48 48 48 49 49 50 49 49 49 49 49 49 50 51 51 52 52 52 52 52 52 50 49 47 45 42 40 39 38 38 38 39 39 40 40 40 41 42 44 45 45 46 47 48 49 51 52 53 54 56 57 59 60 61 62
29 29 29 30 31 32 32 31 30 31 29 28 29 30 32 34 36 38 39 41 43 44 44 45 46 46 47 47 46 45 45 45 45 45 45 46 46 47 48 48 48 48 48 48 49 50 51 51 51 51 51 51 50 49 47 45 42 40 38 37 36 36 36 36 38 39 39 39 40 40 42 43 45 46 46 48 49 51 52 53 55 56 57 58 60 61 62 63
27 28 29 29 31 31 31 30 29 29 28 27 28 29 30 31 33 35 37 38 40 41 41 43 43 44 44 44 44 44 43 43 43 43 44 45 45 46 46 47 47 47 48 48 49 50 50 50 50 50 50 48 46 44 42 40 38 36 35 35 34 35 36 37 38 39 40 40 40 40 42 44 46 47 48 49 51 52 53 55 56 57 59 60 61 63 63 64
27 28 29 29 30 31 31 29 27 28 28 27 27 28 29 31 33 35 36 36 37 39 40 41 42 42 42 42 41 41 41 41 41 42 42 43 43 44 45 46 46 47 47 48 49 49 49 50 50 49 47 44 42 39 37 35 34 34 34 34 34 35 36 37 38 39 40 41 40 41 42 44 46 47 49 50 52 53 55 56 58 59 60 61 63 64 64 65
27 28 29 29 30 30 30 28 26 27 27 27 27 28 29 31 32 34 35 35 36 37 38 39 39 39 39 38 38 37 38 39 39 40 41 42 43 44 45 45 46 46 47 48 49 49 50 50 48 46 43 40 37 34 33 32 31 32 33 34 35 36 37 37 38 40 40 41 41 42 43 45 46 48 50 52 53 55 56 58 59 61 62 63 64 64 65 66
27 28 29 30 29 30 30 27 26 26 26 27 27 27 28 30 31 31 31 32 32 32 33 34 34 34 34 35 36 36 38 39 39 40 41 42 43 44 44 44 45 46 47 48 50 50 50 48 44 41 39 36 33 31 30 30 30 32 33 35 36 37 38 38 39 40 41 42 43 44 44 46 48 50 52 54 55 56 58 59 61 62 62 63 64 64 65 66
27 29 30 30 29 30 29 27 26 27 25 26 27 25 25 27 29 27 25 25 25 27 28 30 31 31 32 34 35 36 38 39 39 40 41 42 43 44 44 45 46 47 48 50 50 49 47 43 40 37 34 32 30 29 29 29 30 32 34 36 37 38 39 39 40 41 43 44 45 45 46 48 51 53 55 55 56 57 58 60 61 62 62 63 64 65 65 66
28 30 31 30 29 29 29 27 26 26 25 24 25 25 25 23 23 24 24 25 26 28 29 30 31 32 33 35 36 37 39 39 40 41 42 43 45 46 46 47 48 49 50 50 48 45 42 39 36 33 31 29 28 28 29 29 30 32 34 36 37 38 39 41 41 43 45 46 47 47 48 50 53 55 56 56 56 58 59 60 61 62 63 64 65 65 65 65
29 31 31 30 29 29 28 27 25 24 24 23 21 23 27 27 26 27 28 29 31 32 33 33 34 35 36 37 38 39 40 42 43 44 45 47 48 48 48 49 49 48 47 45 42 40 38 35 33 31 29 27 27 28 29 30 32 33 35 36 38 40 41 42 43 44 46 48 49 50 51 52 54 56 56 57 58 59 60 60 61 62 64 65 64 64 64 64
31 32 31 30 29 28 27 25 23 22 24 25 25 25 28 32 33 32 32 32 33 34 35 36 37 38 39 40 40 41 42 44 45 45 45 45 46 46 45 44 43 42 40 39 37 36 34 32 30 28 27 27 27 28 30 32 34 35 36 38 39 41 42 43 44 45 46 49 52 53 54 54 54 55 56 58 59 60 60 61 62 63 64 63 63 62 63 65
32 32 30 28 27 25 24 23 23 24 26 28 32 34 35 36 34 32 32 33 34 34 36 37 38 38 40 40 41 42 43 43 41 40 40 40 40 39 38 37 36 35 35 34 34 32 30 29 27 26 26 27 28 30 31 33 35 37 38 39 41 42 43 45 46 46 47 50 53 55 55 55 54 55 57 58 59 60 60 61 62 63 63 62 62 63 64 66
31 29 26 25 23 22 22 23 23 23 24 24 27 30 32 34 35 33 33 33 34 35 36 37 38 39 40 40 41 41 40 39 38 37 37 36 35 34 33 32 32 32 32 31 30 28 27 26 26 25 26 28 30 32 34 36 37 39 40 41 42 44 45 46 47 49 49 51 54 56 56 55 55 56 57 58 59 61 62 62 63 63 64 64 64 65 66 67
29 25 22 21 20 21 23 23 23 21 19 18 18 20 21 25 29 30 30 30 31 32 33 34 35 36 36 37 37 37 36 36 37 36 34 33 31 31 30 31 31 31 30 28 27 26 25 24 25 26 27 29 31 34 36 37 39 40 41 43 44 44 45 46 48 50 52 53 55 57 56 56 57 57 58 59 61 62 63 64 65 66 67 67 67 68 68 68
25 20 19 20 20 22 23 22 22 22 22 20 19 19 20 21 24 26 26 27 28 29 30 31 31 32 33 34 34 35 36 37 35 32 30 30 30 30 30 31 30 29 27 26 25 24 24 24 25 26 28 30 33 34 36 38 40 41 43 44 45 44 45 47 49 52 55 55 55 56 57 58 58 58 59 61 62 64 65 66 67 69 70 70 70 71 70 70
23 18 18 21 22 25 23 20 21 22 26 27 24 23 24 24 25 26 27 28 29 30 31 31 32 33 34 35 36 37 38 35 31 29 29 29 30 30 30 30 28 26 25 24 24 23 23 24 26 28 30 32 34 36 37 39 41 42 43 44 45 46 47 49 50 53 55 55 55 57 59 59 59 59 61 63 64 65 67 68 70 71 73 73 73 73 73 72
22 17 18 23 24 26 25 25 26 25 25 31 31 30 30 29 30 30 30 31 31 32 32 33 35 36 37 39 39 37 34 30 28 29 30 30 30 30 29 27 25 24 23 23 22 23 24 26 28 30 32 34 36 37 38 40 41 42 43 44 46 48 49 51 52 53 54 55 56 58 60 61 61 61 63 64 66 68 69 71 72 74 74 75 75 75 75 73
22 18 19 25 26 28 28 31 34 31 28 31 34 35 36 35 35 35 35 34 34 35 35 36 38 39 39 38 35 31 28 27 28 29 30 30 29 27 26 24 23 23 23 22 22 23 25 27 29 31 33 35 37 38 39 40 41 42 43 45 47 49 51 52 53 52 52 53 56 58 60 62 62 63 64 66 67 69 71 73 74 75 76 76 76 76 76 75
22 20 20 25 28 29 30 33 37 36 34 34 35 37 38 38 38 38 38 38 37 37 37 38 38 37 34 29 26 26 27 28 29 30 30 29 27 24 23 22 22 22 22 22 23 25 27 29 31 33 34 36 37 39 39 40 42 43 44 46 48 50 52 54 54 53 51 52 55 58 60 63 63 64 65 67 69 71 73 74 75 76 77 77 78 77 76 75
22 20 19 25 30 31 32 34 38 39 39 38 37 36 37 38 38 38 37 36 35 35 36 35 32 28 24 23 24 26 28 29 29 29 29 26 24 22 21 21 22 22 22 23 25 27 29 30 32 34 36 37 38 39 40 41 42 44 45 47 49 51 52 54 55 55 53 53 55 57 61 65 65 65 67 69 70 73 74 75 76 77 78 78 78 78 77 76
21 20 19 24 30 33 34 36 38 39 39 38 37 36 36 36 35 34 33 33 33 33 31 27 24 22 22 23 25 27 28 29 29 29 27 24 21 21 21 21 22 23 23 24 26 28 30 32 33 35 37 38 39 40 41 42 43 44 46 48 50 52 53 53 54 56 56 56 57 58 60 66 67 67 69 71 73 74 75 76 76 77 78 78 78 79 77 76
20 19 19 22 30 35 36 36 37 39 40 39 38 37 37 35 34 33 33 33 32 29 24 22 22 22 22 24 25 27 28 29 28 27 24 22 20 20 21 22 22 23 25 26 27 29 31 33 35 36 38 39 40 42 43 44 44 46 48 50 51 53 55 55 55 56 59 59 60 60 60 64 68 68 70 73 75 76 76 76 76 77 77 78 78 78 77 75
19 19 18 21 28 35 36 36 37 38 38 38 38 37 36 35 34 32 30 30 28 24 22 21 22 22 23 24 26 28 28 28 27 25 23 21 20 21 21 23 23 24 26 27 29 31 32 34 36 37 39 40 42 43 44 46 46 47 49 52 53 55 56 57 57 58 60 61 62 62 61 64 69 70 72 75 76 76 76 76 76 76 77 78 78 78 77 75
18 19 18 20 26 31 35 36 37 38 37 38 38 36 36 35 32 28 27 27 25 22 21 21 22 23 24 26 28 28 27 26 25 23 22 21 21 22 22 24 24 25 27 29 30 32 34 35 37 39 40 41 43 44 46 47 49 50 52 53 55 57 57 58 59 61 63 64 64 64 64 66 70 71 73 75 76 76 76 76 76 76 77 78 78 78 77 76
17 19 20 21 23 26 30 30 32 36 38 39 39 37 35 34 30 28 28 27 25 22 21 21 23 25 26 27 29 28 26 25 24 23 22 21 22 23 24 25 26 27 29 31 32 34 36 37 39 40 41 43 44 46 47 49 51 53 54 55 56 58 59 60 62 64 66 66 66 67 67 68 71 73 73 74 75 75 75 76 76 76 77 78 78 78 77 77
17 20 22 24 23 23 25 24 25 29 32 34 36 34 32 31 31 31 30 28 26 24 22 23 24 26 28 29 30 27 25 24 23 23 23 23 23 24 25 27 27 29 31 33 34 37 38 40 41 42 43 44 46 48 49 51 53 54 56 57 58 59 61 62 64 67 68 68 68 69 69 69 71 73 73 73 74 74 75 75 75 77 78 78 79 78 78 77
18 21 23 25 25 24 24 25 24 25 25 27 30 31 31 32 32 31 30 28 26 24 23 24 26 28 30 30 28 26 24 24 23 24 24 24 25 25 26 28 29 31 33 35 36 38 40 42 43 44 45 46 48 49 51 53 53 54 56 58 60 61 62 64 66 68 70 70 70 71 71 71 72 72 73 73 73 74 74 75 76 77 78 78 79 79 78 76
19 21 24 26 27 25 25 27 26 25 25 25 27 30 32 33 32 31 29 26 25 25 25 26 28 30 31 30 27 25 24 23 23 24 25 25 26 27 28 29 31 33 35 36 38 40 42 43 45 46 47 48 50 51 52 53 54 55 56 58 60 62 64 65 66 68 70 71 71 72 72 72 73 73 73 74 74 74 75 75 76 78 78 79 79 79 78 76
19 21 23 26 27 26 26 28 28 28 27 25 26 28 30 32 31 30 27 25 25 26 27 28 30 31 31 28 26 24 23 23 24 24 25 26 27 28 29 31 33 34 36 38 40 42 43 44 45 47 48 50 51 52 52 54 55 56 58 60 62 63 64 64 65 66 69 73 73 73 72 72 74 75 75 75 75 75 76 77 78 78 79 79 79 78 77 75
18 20 22 25 27 28 28 29 30 30 29 27 27 28 30 30 29 27 26 25 26 28 29 30 32 32 30 27 26 25 24 23 24 25 26 27 27 29 30 32 33 35 37 39 41 42 44 45 46 48 49 50 51 52 53 55 57 58 60 61 63 64 64 64 65 65 67 71 74 75 74 72 74 76 76 76 76 76 77 78 79 79 79 79 78 77 76 75
17 18 20 24 27 29 30 30 31 31 30 29 28 29 30 29 27 27 27 27 28 30 31 32 33 31 28 27 26 25 24 24 25 26 27 27 28 29 31 33 34 36 38 40 41 43 44 45 47 48 50 51 52 54 55 57 59 60 61 63 64 66 66 66 67 66 66 69 73 77 77 74 74 76 77 76 77 77 78 79 79 79 78 78 77 76 74 73
16 17 19 22 27 30 32 32 32 32 31 30 29 29 29 29 28 29 30 30 31 32 33 34 33 30 28 27 26 25 25 25 26 26 27 28 29 30 32 34 36 37 39 40 42 43 45 47 48 49 51 52 54 56 58 59 60 62 63 64 65 67 68 68 69 69 68 69 72 76 78 76 74 76 77 77 77 78 78 79 79 78 78 77 76 74 73 72
16 17 19 21 26 30 33 34 34 32 31 31 30 30 30 30 31 31 32 32 33 34 35 34 32 29 28 27 26 26 26 26 27 27 28 29 30 32 34 35 37 38 40 41 43 44 46 48 50 51 52 54 55 57 59 61 62 64 65 66 67 68 69 69 70 70 70 69 71 76 79 76 72 74 76 76 77 78 78 79 78 78 77 76 74 72 71 71
15 16 18 21 24 29 33 35 35 33 32 32 33 32 32 33 33 34 34 35 36 37 35 32 30 29 28 26 26 26 27 27 28 29 29 30 32 34 35 37 38 40 41 43 44 46 47 49 52 53 54 56 57 59 61 63 64 66 67 68 68 69 69 70 71 70 70 69 69 73 80 78 72 72 75 76 77 78 79 79 78 77 76 73 71 70 70 70
14 16 17 20 23 26 31 34 35 34 34 34 34 35 35 36 36 36 37 38 38 36 32 30 30 29 27 26 27 27 28 29 30 30 31 32 33 36 37 38 40 42 43 45 46 48 49 51 54 55 56 57 58 60 62 65 67 68 69 70 70 70 70 71 72 71 70 69 68 69 78 82 76 73 76 77 78 79 79 79 78 76 73 70 68 68 68 70
14 15 16 18 21 24 29 32 35 36 36 36 36 36 38 38 39 39 38 37 34 32 30 30 29 28 27 27 27 28 29 30 31 32 33 34 35 37 39 40 42 43 45 46 48 50 51 53 55 57 57 58 59 61 64 66 69 70 71 71 71 71 71 71 73 74 73 72 70 68 74 82 80 76 78 79 79 80 79 79 77 74 70 66 65 66 68 70
13 15 16 18 20 22 25 28 32 35 36 37 37 38 39 39 39 37 35 32 30 30 30 30 29 28 28 28 28 30 31 32 33 33 34 36 37 39 41 42 44 45 47 48 50 52 53 55 56 58 59 60 61 63 65 68 70 71 71 70 70 71 71 71 72 75 75 75 74 71 73 82 82 78 80 81 80 81 79 77 74 70 66 64 63 65 67 71
13 14 16 17 18 20 21 24 27 30 32 33 34 35 35 34 33 31 30 29 30 30 30 29 28 28 28 29 30 31 32 34 34 35 36 38 39 41 42 44 46 47 49 50 52 53 54 56 57 59 61 62 64 65 66 68 70 71 71 70 70 71 72 73 72 74 76 77 78 75 75 82 84 80 81 82 80 79 77 73 70 66 63 62 62 64 68 71
12 13 15 16 16 18 19 20 22 24 26 27 27 28 29 28 28 29 29 30 30 30 29 28 28 29 29 30 31 32 34 35 36 37 38 40 41 43 44 46 48 50 51 52 54 55 56 57 58 60 63 65 66 66 66 67 69 70 70 69 69 71 73 74 74 75 77 78 80 78 75 80 85 82 80 79 77 76 74 69 66 63 61 61 62 64 68 72
12 12 14 14 15 16 17 18 19 21 22 23 24 26 26 27 28 29 30 30 29 29 29 28 29 30 30 31 33 34 35 36 38 39 40 41 43 45 46 48 50 51 53 54 55 56 57 58 59 60 63 66 68 67 66 67 68 69 71 70 70 71 73 76 77 78 78 79 82 81 77 78 83 81 77 76 74 73 71 66 62 60 60 61 63 66 69 72
11 12 13 14 14 15 16 17 19 20 21 22 24 25 27 28 29 29 29 29 28 28 28 29 30 31 32 33 34 35 36 37 39 41 42 43 45 47 48 50 51 53 54 55 56 57 58 59 60 60 61 64 67 68 67 67 68 70 71 72 71 72 75 78 80 80 80 79 81 83 78 76 78 78 75 75 73 71 69 64 60 60 61 63 65 68 70 72
11 12 13 14 14 16 17 18 19 21 22 23 25 27 28 29 29 28 28 27 28 29 29 30 31 32 33 34 35 36 37 38 40 42 44 45 46 48 49 51 53 54 55 56 57 58 59 61 62 62 62 63 65 66 66 66 68 71 73 74 73 74 77 80 81 81 80 78 79 81 77 71 72 75 75 75 72 68 66 63 61 62 64 66 68 70 71 74
13 13 14 14 15 17 18 19 21 23 24 25 26 27 28 27 27 27 27 27 28 29 30 31 32 33 34 35 36 38 39 40 41 42 44 46 47 49 51 53 54 55 57 58 58 59 60 62 64 64 64 65 66 67 67 68 70 73 76 77 76 76 78 81 82 82 80 77 74 76 75 71 70 71 72 72 68 65 64 63 62 64 67 69 71 72 74 76
14 14 15 16 17 19 21 22 23 25 25 26 26 26 26 26 26 26 27 28 29 30 31 32 33 34 35 37 38 39 40 41 42 44 45 47 48 50 52 54 55 57 58 59 59 60 60 62 64 65 66 68 69 70 71 71 73 75 79 79 78 77 78 80 81 80 78 74 70 70 73 74 71 68 67 66 62 61 62 62 63 65 68 71 73 76 78 80
15 16 17 18 19 21 22 23 24 25 25 25 25 25 25 25 26 27 28 29 30 31 32 33 34 35 37 38 39 40 42 43 44 45 47 48 50 51 53 55 56 58 59 60 61 61 61 62 64 65 67 70 72 72 73 74 75 77 80 80 78 77 77 77 77 77 74 71 70 69 72 75 73 66 62 61 60 60 62 63 64 66 69 72 76 79 82 84
17 18 19 20 21 22 23 23 24 24 24 24 24 25 25 26 27 28 29 30 31 33 33 35 36 37 38 40 40 42 43 44 46 47 48 50 51 53 54 56 58 59 60 61 62 63 63 63 65 66 67 71 75 75 75 75 76 78 80 79 76 74 74 73 73 73 72 71 71 71 71 72 71 65 59 58 59 61 64 66 67 68 71 75 79 83 85 87
18 19 20 21 22 22 23 23 23 24 24 25 25 25 26 27 28 30 31 32 33 34 35 36 37 38 40 41 42 43 45 46 47 49 50 52 53 55 56 58 59 60 62 63 64 65 66 66 67 67 67 70 75 76 75 76 76 77 77 75 72 70 70 71 72 73 73 72 72 71 68 65 64 61 57 57 59 63 66 68 69 71 75 79 81 85 87 90
19 20 20 21 21 22 22 23 23 24 25 25 26 26 27 28 30 31 32 33 34 35 37 37 39 40 41 42 44 45 47 48 49 50 52 53 55 56 58 59 61 62 64 65 66 68 69 68 69 68 66 69 73 73 73 73 74 75 74 70 69 69 70 71 72 74 75 73 71 69 65 60 57 55 56 58 61 64 68 71 72 74 78 82 84 86 89 92
19 19 20 20 21 22 22 23 24 24 25 26 27 28 29 30 31 32 34 35 36 37 38 39 40 42 43 44 45 47 48 50 51 52 54 55 57 58 60 61 63 64 66 67 68 69 70 69 69 67 65 66 69 69 68 69 71 73 71 68 67 69 70 71 73 76 76 73 70 66 61 57 56 56 57 59 62 66 71 75 76 77 80 83 86 88 90 93
Wind_Direction
238 240 241 240 239 238 238 238 239 239 239 240 241 241 241 242 243 243 243 242 241 243 245 247 249 250 252 254 255 256 257 258 260 261 262 264 265 266 267 268 269 270 272 273 275 277 279 281 282 284 286 288 290 292 294 295 296 296 297 297 298 298 298 297 297 297 297 298 300 302 305 306 305 305 306 306 307 307 307 308 309 309 309 310 310 310 310 310
240 242 244 244 243 242 242 242 242 242 241 242 242 243 243 243 244 244 244 244 243 243 245 247 249 251 253 254 256 257 258 259 260 262 263 264 266 267 268 269 271 272 274 276 278 280 282 284 285 287 290 292 293 295 296 297 297 297 298 298 298 298 297 297 297 298 300 302 305 306 307 306 305 305 306 306 307 306 307 308 309 309 309 310 310 311 311 311
242 244 247 248 248 248 247 246 245 245 244 243 243 244 244 244 244 245 246 246 246 245 246 248 250 251 253 254 256 257 259 260 262 263 264 266 268 269 270 272 273 275 277 279 281 283 285 287 288 290 292 295 296 297 297 298 298 298 298 298 297 297 297 298 300 302 304 305 306 306 306 305 304 305 307 307 307 306 307 308 308 309 310 311 311 311 311 311
245 247 249 251 253 253 252 251 250 248 246 245 244 244 245 244 245 245 246 247 247 247 248 250 251 252 253 254 256 258 259 261 263 264 266 267 269 270 272 273 275 277 279 281 284 285 287 289 291 292 294 296 297 298 298 298 298 298 297 296 296 297 299 301 303 304 304 305 305 305 305 304 305 306 307 307 307 307 308 309 310 311 311 312 312 312 312 312
247 248 250 252 253 254 253 253 253 252 249 247 245 243 243 243 244 244 245 246 247 248 248 250 251 253 254 255 257 258 260 262 264 266 268 270 271 273 274 276 278 279 282 284 286 288 289 290 292 295 296 298 298 298 298 297 296 296 295 295 296 299 301 302 302 302 302 304 305 305 305 305 305 305 306 306 307 308 310 311 311 312 312 313 313 312 312 311
248 249 250 251 252 253 254 254 254 254 253 250 247 244 242 241 241 242 243 244 246 247 248 249 251 252 254 256 258 260 262 264 266 268 270 272 274 276 278 280 281 283 285 287 288 289 291 293 295 298 299 299 299 298 297 295 294 294 294 296 299 301 301 300 299 300 301 302 303 303 303 303 303 304 306 307 309 310 311 312 312 313 313 314 313 313 312 311
249 249 250 251 252 253 255 255 255 255 255 252 249 245 241 239 238 240 241 240 243 246 247 248 250 252 254 256 258 260 263 264 266 268 271 273 275 277 279 281 283 285 287 289 290 291 293 296 298 299 299 299 298 297 295 294 293 294 296 298 300 299 299 299 299 299 300 301 302 303 303 303 304 306 308 309 310 311 312 313 314 314 315 314 314 313 312 312
250 250 251 252 253 255 256 256 256 256 255 251 247 243 239 237 235 236 239 239 240 242 244 247 249 251 253 256 258 260 262 264 266 268 271 273 275 277 279 281 284 286 287 289 290 293 295 298 299 299 298 297 296 294 293 293 295 296 298 299 299 297 298 298 298 299 300 300 301 302 302 304 306 308 309 310 311 312 313 314 315 315 315 315 314 314 313 313
253 253 253 253 254 257 258 258 258 256 253 249 244 240 235 231 232 234 236 238 239 242 245 248 250 253 254 255 256 258 260 262 264 267 269 271 274 276 279 282 284 285 287 289 291 294 297 298 298 297 296 295 293 291 292 294 297 298 299 298 297 296 297 297 297 298 299 299 301 302 303 305 307 308 309 310 311 313 314 315 315 315 315 315 314 314 314 314
253 254 255 255 256 258 260 261 259 256 252 246 240 234 229 225 226 230 233 237 240 243 247 250 253 255 256 256 257 258 259 261 263 266 269 272 274 277 279 281 282 284 286 289 293 295 297 297 296 295 294 291 290 290 292 296 298 298 297 296 296 296 297 297 298 298 299 300 301 303 306 308 309 309 310 311 312 314 314 315 315 316 315 315 315 315 315 314
253 255 256 257 258 260 262 261 259 256 249 241 233 223 219 222 222 223 229 233 237 241 245 250 254 254 255 256 258 260 261 263 265 268 270 273 274 276 278 280 282 284 288 291 294 295 295 295 294 292 290 289 290 292 295 297 298 297 295 294 295 296 297 298 299 300 301 302 303 305 308 309 309 310 310 312 313 314 315 315 316 316 315 315 315 315 315 315
256 257 258 259 260 261 262 261 257 252 242 231 224 213 205 212 220 220 222 225 229 234 239 244 248 250 251 253 256 260 263 266 268 269 271 273 274 276 278 280 283 286 289 291 292 292 292 292 290 288 287 288 291 294 297 297 296 295 293 294 294 295 296 298 301 302 302 303 305 308 309 309 309 310 311 313 314 315 315 315 315 315 315 314 314 315 316 317
260 261 261 262 263 262 261 258 252 244 233 217 210 212 205 203 211 214 217 221 225 231 235 239 243 246 249 252 256 260 264 266 268 271 273 275 277 279 280 282 284 286 288 289 290 290 290 288 286 285 287 290 293 296 296 296 294 293 292 293 294 295 297 299 300 301 303 305 307 308 308 309 310 312 313 314 315 315 315 315 315 314 314 314 315 317 319 320
264 264 266 266 264 262 258 252 242 229 221 205 195 206 211 208 210 214 216 221 225 230 235 239 243 247 250 253 257 261 264 268 272 276 278 279 280 282 283 284 285 285 286 287 288 288 287 285 284 286 289 293 296 296 295 294 292 292 292 293 295 297 299 299 300 302 306 307 307 308 309 311 313 315 315 315 316 316 315 315 314 314 314 316 318 320 322 322
268 268 269 266 262 256 247 238 227 214 212 207 199 204 211 212 212 215 220 224 228 232 237 241 245 248 251 255 259 263 267 271 276 279 280 281 282 283 284 283 284 284 285 286 286 285 283 283 285 289 294 296 297 296 295 293 293 294 295 296 298 298 299 300 302 305 307 308 308 310 312 314 316 316 316 317 317 317 317 316 315 315 317 319 321 323 323 324
270 270 268 261 253 243 230 222 216 209 210 214 211 212 215 215 216 219 224 229 234 239 243 247 250 253 256 259 263 266 270 275 278 280 281 281 281 282 282 282 283 284 285 284 282 281 282 285 289 294 297 298 297 296 295 295 295 296 297 298 298 299 300 304 306 308 309 310 311 312 314 316 317 316 317 318 319 319 318 318 319 320 321 322 323 324 324 325
271 270 262 251 239 227 217 211 207 201 206 218 221 225 226 223 224 227 231 237 242 246 249 251 254 256 259 262 265 269 274 279 282 280 279 278 278 279 280 282 284 284 282 280 278 279 282 288 293 296 297 297 295 294 294 295 295 296 296 297 298 301 305 307 309 309 311 312 312 313 315 316 316 317 318 319 319 319 320 321 323 324 325 325 325 325 325 325
270 266 252 238 226 215 204 201 205 196 194 210 220 224 227 227 229 231 236 240 242 245 247 249 252 255 258 262 268 274 280 283 281 276 275 275 277 279 281 283 283 281 278 276 276 279 284 290 294 295 295 294 292 292 293 294 294 295 296 299 302 305 307 308 310 311 312 313 313 314 315 315 316 317 319 319 320 321 322 324 325 326 326 326 326 326 326 326
268 260 240 228 220 211 195 193 214 207 192 199 208 212 215 219 223 227 231 234 237 241 244 248 253 257 261 265 273 279 282 280 274 271 272 275 278 281 282 282 280 277 275 275 279 283 289 293 295 296 295 294 293 293 294 294 295 297 300 302 304 306 307 309 311 312 312 313 314 314 315 315 316 317 318 319 320 322 323 325 326 326 326 326 326 326 326 327
264 254 232 224 219 211 194 186 209 218 204 200 205 209 212 216 220 224 228 232 237 241 247 252 257 261 266 271 277 279 276 271 269 270 273 276 280 281 281 278 276 275 275 278 283 289 293 295 295 295 295 295 295 295 296 297 298 299 301 303 305 307 309 310 311 311 312 314 316 316 315 315 316 317 318 319 320 322 324 325 325 325 325 326 326 326 327 328
260 250 229 221 218 213 200 187 195 209 213 212 211 214 217 220 224 228 232 236 241 247 253 258 262 267 272 275 274 270 266 266 268 271 275 279 281 279 276 274 273 274 277 281 287 291 294 295 295 295 296 296 296 296 296 297 298 300 302 304 307 308 309 309 310 312 313 315 316 316 315 314 315 316 317 318 320 322 323 324 324 325 325 326 326 326 327 328
256 248 230 220 217 213 206 195 193 200 209 216 218 219 222 226 229 233 237 242 247 252 258 262 267 271 271 269 263 260 262 266 271 275 278 280 278 275 273 272 273 276 280 285 290 293 295 296 296 296 295 295 295 295 296 297 298 300 303 305 306 307 308 309 311 312 314 315 316 316 315 314 315 317 318 319 321 322 323 324 324 325 325 326 325 326 326 328
255 250 234 221 217 213 208 202 199 201 207 214 217 220 224 228 232 237 242 247 252 257 262 266 268 266 261 257 258 261 265 269 274 278 280 278 274 271 271 271 274 277 282 288 292 294 295 295 295 295 295 294 294 294 295 296 298 301 303 304 305 306 308 310 312 312 313 315 315 317 317 316 317 319 319 320 321 322 323 324 324 324 325 325 325 325 326 327
255 251 236 221 217 215 211 207 205 208 214 218 220 222 226 229 233 239 245 251 256 261 264 263 260 256 254 256 260 264 269 274 278 279 278 275 271 270 270 272 275 280 284 289 292 294 294 294 295 295 294 294 293 294 295 296 298 300 302 303 304 306 308 310 311 312 314 316 316 317 318 317 318 320 320 321 322 323 323 324 324 324 324 324 324 325 326 327
253 249 239 222 215 216 216 214 211 212 218 222 223 226 229 233 238 245 252 256 258 260 259 254 253 255 257 259 264 269 274 278 279 276 274 271 270 270 271 274 277 282 286 290 292 293 293 293 294 293 293 293 293 294 295 297 299 301 302 303 305 307 309 310 311 312 314 316 317 317 318 317 317 319 320 321 322 323 323 323 323 323 323 323 324 325 326 326
252 249 240 225 216 216 219 220 219 220 223 225 226 229 234 239 244 250 252 253 253 252 250 252 256 258 260 265 270 275 279 279 276 272 271 270 270 270 272 275 279 283 286 288 289 290 290 290 291 292 292 293 294 295 297 299 301 301 302 304 306 307 308 309 310 312 314 316 316 316 317 318 318 320 321 321 322 322 322 322 323 322 322 323 324 325 325 326
250 250 242 229 221 219 220 222 226 228 230 231 231 233 237 240 243 245 247 249 248 246 249 255 259 262 265 271 276 280 279 275 272 270 269 270 270 271 273 276 279 282 285 287 288 288 288 289 290 291 292 293 295 297 298 300 301 302 303 304 306 307 308 310 311 313 314 315 315 316 318 319 318 319 320 320 321 321 322 322 322 322 322 323 324 325 325 326
247 249 244 234 227 222 222 226 229 229 230 232 232 233 235 236 238 242 247 248 244 246 256 261 263 265 268 275 280 280 276 272 270 269 269 270 272 273 274 277 280 283 285 287 288 288 289 290 291 292 293 294 295 297 299 301 302 303 304 304 305 307 309 311 312 313 314 314 315 316 318 318 318 318 319 319 320 320 321 321 321 322 323 324 325 325 325 325
245 245 243 237 231 222 219 223 224 224 226 228 228 229 231 234 237 242 247 245 242 249 262 265 265 266 271 279 281 277 271 269 268 267 269 272 273 274 275 278 281 283 285 287 288 289 290 291 292 293 294 295 296 299 300 301 302 303 304 305 306 308 310 311 312 313 314 315 316 317 317 317 317 317 318 318 319 319 320 321 322 323 324 324 325 325 325 324
245 243 241 238 234 223 215 217 217 218 221 223 224 226 230 234 237 241 244 242 244 255 265 266 266 268 275 280 277 271 268 267 266 268 270 272 274 276 277 279 282 284 285 286 288 289 290 291 292 293 294 296 298 300 300 301 301 302 303 305 307 309 310 311 313 314 315 315 316 316 315 316 316 316 317 318 319 320 320 322 323 323 324 325 325 325 324 324
244 242 240 238 235 227 218 217 216 216 218 222 226 229 232 235 237 238 240 241 249 260 266 266 266 272 279 278 271 267 266 266 267 269 271 273 275 278 279 281 283 284 286 287 288 289 290 291 293 294 296 298 299 300 300 300 301 302 303 305 306 308 309 311 313 314 314 314 314 314 314 315 316 316 317 318 319 320 322 323 323 324 324 325 325 324 323 324
245 241 239 236 235 231 224 220 218 217 219 223 228 231 231 232 233 236 242 247 255 263 265 266 269 276 279 273 266 265 265 265 267 269 271 274 276 279 281 283 284 286 287 288 290 291 292 293 294 296 298 299 300 300 301 301 302 303 304 305 307 308 309 311 312 312 313 313 313 313 313 315 317 317 318 319 320 322 323 323 324 324 325 326 325 324 323 323
244 240 237 234 233 232 228 225 222 221 223 227 231 231 230 232 237 244 250 252 258 264 265 267 274 279 275 268 265 264 264 265 268 269 272 274 277 280 283 285 286 287 288 289 291 292 293 294 296 297 299 300 301 301 302 302 303 304 305 306 307 308 308 309 310 311 312 313 314 314 314 316 317 318 319 320 321 322 323 323 323 324 325 325 324 323 322 323
243 239 234 231 229 230 231 230 228 226 227 231 235 234 235 239 245 250 252 254 259 263 264 271 278 277 270 266 265 264 265 267 268 270 272 276 279 282 285 287 288 289 289 290 292 293 294 295 297 298 299 301 302 302 303 304 305 306 306 307 307 308 309 310 310 311 313 314 315 315 315 316 318 319 319 321 321 322 322 323 323 324 325 325 323 321 321 323
241 237 232 229 226 227 230 232 232 231 231 234 236 238 240 244 247 249 251 254 258 261 267 275 278 272 267 266 265 264 266 268 270 272 274 278 281 284 287 288 289 290 291 292 293 294 295 297 298 299 301 302 302 304 304 305 306 306 307 307 308 309 309 310 311 312 313 314 315 315 315 316 318 319 319 320 321 321 322 322 322 323 324 324 322 320 321 323
240 236 230 227 226 226 228 231 233 233 233 234 237 239 241 243 244 246 249 254 258 264 272 276 273 268 266 266 264 265 267 269 271 274 277 280 284 286 288 289 290 291 291 292 293 295 297 298 299 300 302 302 303 304 305 305 306 306 307 308 308 309 310 310 311 311 312 313 315 315 314 315 318 319 319 319 320 320 321 321 322 323 323 322 320 319 321 323
240 235 230 227 226 226 227 229 232 234 234 235 237 239 239 240 242 245 250 256 263 270 273 271 267 265 265 265 265 267 269 271 273 276 279 282 285 287 288 289 290 291 292 293 295 297 299 300 301 301 302 303 304 304 305 306 307 308 308 308 308 309 310 310 310 310 311 313 315 316 315 314 317 318 318 319 320 320 320 321 321 322 322 321 320 320 322 324
240 235 231 228 227 226 226 229 231 232 233 235 238 240 241 243 246 251 257 264 269 270 268 266 265 265 265 265 266 268 271 274 276 278 280 283 286 287 288 289 291 292 293 295 297 298 300 301 302 302 303 303 304 305 307 307 308 308 308 309 309 310 310 310 310 311 312 313 315 317 316 315 317 319 319 319 320 320 320 321 321 322 322 321 320 320 323 325
239 236 233 230 229 227 227 229 231 233 235 237 240 242 245 248 253 259 264 267 267 265 264 264 265 264 264 265 267 269 271 274 276 279 282 284 286 288 289 290 291 293 295 296 298 299 301 302 303 304 305 305 306 307 308 309 309 309 309 310 310 311 311 312 312 312 313 314 315 317 317 315 317 320 320 320 320 320 320 321 321 322 322 321 321 322 324 326
237 236 233 232 231 229 229 230 232 235 238 241 244 246 250 254 258 262 264 263 262 263 264 264 264 264 265 266 268 270 273 275 277 280 283 285 287 288 290 291 293 294 296 297 299 300 302 304 305 305 306 307 307 308 308 309 309 309 310 310 311 311 311 312 313 313 314 315 316 318 318 316 317 320 321 320 321 320 320 321 322 322 321 322 323 324 325 328
236 235 233 232 232 233 232 232 233 236 240 243 247 249 252 255 258 260 260 261 262 264 264 264 264 265 267 268 270 272 274 277 279 282 284 286 288 289 291 292 294 296 297 299 300 301 303 305 305 306 307 307 308 308 310 310 310 310 310 311 311 312 312 312 313 314 314 316 316 318 320 318 318 321 321 320 321 320 321 322 322 322 322 323 324 325 327 329
234 234 233 234 235 236 235 236 237 240 243 246 249 251 254 256 258 259 261 262 263 264 264 265 266 267 268 270 272 274 276 279 281 283 285 287 289 290 292 293 295 297 298 299 301 302 304 305 305 306 307 308 308 309 310 311 311 310 310 311 312 313 313 313 314 314 314 316 316 318 320 319 318 320 321 320 321 321 321 322 322 322 323 324 325 326 328 330
235 235 235 237 240 241 242 243 244 246 248 250 252 254 256 258 260 261 262 263 263 263 264 266 267 269 270 272 274 276 278 281 283 284 286 288 289 291 292 294 295 297 298 300 301 302 304 304 305 307 308 309 309 310 311 312 311 311 311 311 312 313 313 313 313 314 315 316 316 317 320 320 318 319 321 320 321 321 321 322 323 323 324 325 326 327 329 331
241 241 241 243 246 248 250 251 253 254 256 256 257 258 259 260 261 262 263 263 263 264 266 268 269 271 272 274 276 278 280 282 284 286 287 288 290 291 293 294 295 297 298 300 301 302 304 304 305 306 307 308 308 309 311 311 311 310 310 311 312 313 313 312 313 313 314 316 317 317 320 321 319 320 321 321 322 323 321 322 325 325 325 326 327 329 330 331
248 249 250 253 255 257 258 260 260 261 261 261 261 261 261 261 262 262 263 263 265 267 269 270 272 273 275 277 278 280 282 283 284 286 288 289 290 291 293 294 296 297 298 300 301 302 304 305 305 306 307 307 307 307 309 310 309 309 309 310 311 312 312 311 312 312 314 316 317 317 319 321 320 320 322 322 323 323 321 323 326 327 326 327 328 329 331 332
253 256 259 262 263 265 266 266 265 265 264 264 263 262 262 262 263 263 265 267 268 271 272 273 274 275 277 278 280 282 283 284 286 287 288 290 291 292 293 295 296 297 298 299 300 302 304 305 306 307 308 307 307 307 308 309 309 309 309 309 311 312 311 311 311 312 314 317 319 319 319 320 320 321 322 323 324 323 322 324 327 327 327 328 329 330 330 331
260 263 267 269 269 269 270 269 268 267 267 266 264 263 263 264 265 267 269 270 272 274 275 275 276 277 279 280 282 283 285 286 287 288 289 290 292 293 294 295 296 297 298 299 300 302 304 305 306 307 308 307 307 307 309 309 310 309 308 309 311 312 312 311 312 313 316 318 320 320 319 319 320 322 323 323 324 323 322 324 326 327 328 328 329 329 330 331
268 270 272 272 272 271 272 271 270 269 268 267 265 265 265 266 268 270 272 274 275 276 277 278 278 279 280 282 283 285 286 287 288 289 291 292 293 294 294 295 296 297 298 299 301 302 304 305 305 307 307 307 306 307 309 309 310 309 308 309 311 312 312 313 313 315 318 320 321 320 319 319 321 324 325 324 324 323 323 324 326 328 328 328 329 329 330 330
273 274 275 275 274 274 274 273 272 270 269 268 267 267 267 269 271 272 274 276 277 278 279 279 280 281 282 283 285 286 287 289 290 291 292 293 294 294 295 296 296 298 299 300 301 302 304 305 305 306 307 306 306 307 309 309 309 308 307 309 313 314 314 315 316 317 318 320 320 319 320 321 322 325 326 325 325 324 324 325 327 328 328 329 329 329 330 330
275 276 276 277 277 276 276 275 272 271 269 269 268 269 269 271 272 274 276 278 279 280 281 281 282 283 284 285 287 288 289 290 291 292 293 294 295 295 296 297 298 299 300 301 302 303 304 304 304 305 306 305 305 307 309 309 309 308 308 311 314 316 316 317 317 317 317 318 318 319 321 323 323 325 326 326 325 324 324 324 326 328 328 328 329 330 330 331
277 278 279 279 279 278 277 275 274 272 271 271 271 271 272 273 275 277 278 280 281 282 283 284 284 285 286 287 288 289 290 291 292 293 293 294 295 296 297 298 298 300 301 301 302 302 302 303 303 305 307 306 305 308 309 310 309 307 308 313 316 317 317 317 317 315 315 317 320 321 323 324 324 324 325 325 325 325 324 324 326 328 328 328 329 330 330 331
279 280 280 281 280 279 278 276 275 274 273 274 274 274 275 276 277 278 280 282 283 284 285 286 286 287 288 289 289 290 291 292 292 293 294 295 296 296 297 298 299 300 300 300 301 301 302 303 305 307 309 308 307 308 309 309 307 306 309 314 317 316 316 316 315 313 315 319 322 323 324 324 324 324 325 325 325 326 325 324 325 328 328 328 329 329 329 330